indice_tiempo,ganancias,ganancias_dgi,ganancias_dga,iva,iva_dgi,devoluciones,iva_dga,reintegros,internos_coparticipados,ganancia_minima_presunta,intereses_pagados,otros_coparticipados,derechos_exportacion,derechos_importacion_otros,total_combustibles,combustibles_ley_23966_naftas,combustibles_ley_23966_otros,otros_s_combustibles,bienes_personales,creditos_debitos_cta_cte,impuesto_pais,otros_impuestos,aportes_personales,contribuciones_patronales,faciliades_de_pago,otros_ingresos_seguridad_social,sistema_capitalizacion,otros_sipa,sistema_seguridad_social,total_recursos_tributarios,total_con_capitalizacion_transitorios
1997-01-01,631.74277712,595.21107149,36.53170563,1804.6431159,1343.52091004,129.83098229,590.95318815,50.0757591,130.05473029,0.0,2.85731756,21.30285567,0.48568509,232.40586621,361.39738819,138.95373719,222.443651,0.0,8.43899638,0.0,,54.76342507,682.59539,780.9334,53.28262,26.198329000000005,381.52442,5.74276,1155.7425589999998,4353.7589573800005,4741.02613738
1997-02-01,532.71521509,502.1769839,30.53823119,1588.98921518,1203.8761402,113.17965609,498.29273106999995,55.91666454,133.37345371,0.0,9.70749917,14.346444015,0.04422657,184.54337243999998,316.92601910999997,232.7381331,84.18788601,0.0,3.83090259,0.0,,54.199056595,497.61208,568.1589700000001,36.68407,31.777588,281.02482,1.20442,852.003468,3634.7622079300004,3916.9914479300005
1997-03-01,527.81557962,493.73393046,34.08164916,1585.99309456,1161.52962617,113.71717129,538.18063968,65.16260571,152.66107321,0.0,11.265022199999999,22.43254584,0.03067134,197.98580090000002,265.69039946,193.30577454,72.38462492,0.0,4.58903926,0.0,,52.108748229999996,460.7992,496.88187999999997,35.97945,51.681675,265.91871,3.47261,775.950885,3531.36025391,3800.75157391
1997-04-01,747.62803211,707.20174906,40.42628305,1613.22136337,1168.3374551900001,195.77145943,640.65536761,58.552100700000004,112.59282793,0.0,-20.07463693,13.313082600000001,1.227591,241.55,336.25746153,233.48882145,102.76864008,0.0,69.19619721,0.0,,58.89422747,514.40759,533.82079,37.85498,28.630557000000003,285.49642,4.6942,824.5232970000001,3939.77734259,4229.96796259
1997-05-01,1288.79050625,1247.1110703499999,41.6794359,1751.58095073,1222.08651433,133.04231448,662.53675088,51.80744999,130.67491839,0.0,1.11442904,15.941112829999998,1.704673,235.32,260.97760704,225.63564258,35.34196446,0.0,68.83253454,0.0,,59.160410230000004,493.7789,559.9994499999999,34.6159,46.569696,287.26607,9.05706,838.6408160000001,4600.93050806,4897.2536380599995
1997-06-01,662.72050301,621.07612174,41.64438127,1673.85599439,1171.11404128,100.80157423,603.54352734,43.41429425,132.99829461,0.0,-1.0361201,19.34410022,0.692503,216.04,290.78246571,211.68340757,79.09905814,0.0,79.62804654,0.0,,60.728779970000005,466.14732,554.05228,32.29211,19.932948,283.34936,-27.19222,816.267518,3908.6077911,4164.7649311000005
1997-07-01,592.97404952,545.3035272300001,47.67052229,1650.06930329,1139.34026316,179.04620203,689.77525216,45.67525102,114.23230258,0.0,0.98094335,23.65516637,0.880109,259.27,299.5559485,203.24322048,96.31272802,0.0,16.21076067,0.0,,56.27321665,725.90139,805.4895700000001,33.29275,46.910472,408.61274,35.28047,1167.7009720000003,4136.127520910001,4580.020730910001
1997-08-01,668.98324899,625.53179258,43.45145641,1751.31710343,1254.1714655,162.67501679,659.82065472,49.27626087,121.79061199,0.0,0.55926401,21.11691115,0.41488666,239.268041,299.74535467,170.40241152,129.34294315,0.0,77.89107345,0.0,,63.25317887,479.59741,554.2722900000001,31.19799,19.104505,293.96295,-23.99603,814.2052750000001,4009.2686883499996,4279.235608349999
1997-09-01,574.90133302,528.44813562,46.4527474,1924.59586935,1250.67840396,111.93120658,785.8486719699999,49.86575023,125.84284175,0.0,0.5081562,15.82840549,0.62673399,257.44640961,336.39886599,194.58960172,141.80926427,0.0,8.16796796,0.0,,79.22861881,503.4725,576.28295781,30.79317,9.51841,299.23549,11.24848,809.5830678099999,4083.2625197499992,4393.7464897499995
1997-10-01,696.07604824,649.9026477499999,46.17340049,1662.00626381,1228.15585266,311.30348807,745.15389822,75.40849616,119.34374248,0.0,-0.61867993,19.036532519999998,0.1587084,267.81756691,312.02225081,197.51069524,114.51155557,0.0,71.34969531,0.0,,57.78383402,528.04043,576.86916,29.81301,17.689576,305.20959,14.89795,832.3046360000001,3961.8721024100005,4281.97964241
1997-11-01,766.42487935,722.50808917,43.91679018,1721.01186019,1235.44741331,152.85805526,638.42250214,56.46111476,134.21937138,0.0,8.25683062,16.093683145,0.1216115,258.25727654,363.09636233000003,193.19676446,169.89959787,0.0,7.63452267,0.0,,82.653365015,488.36336,577.286766,26.4537,10.931887000000001,305.18478,-17.85344,815.7043729999999,4117.013020980001,4404.344360980001
1997-12-01,643.00651441,599.82603978,43.18047463,1746.5898697,1260.72843367,159.0866749,644.94811093,51.88912231,129.55702179,0.0,3.94811566,21.52922291,0.08011846,237.17996594000002,484.23480554,249.07014283,235.16466271,0.0,72.92405301,0.0,,114.71790846,534.33067,626.096622,25.35557,7.857208999999999,298.96213,45.98271,848.695231,4250.573704570001,4595.518544570001
1998-01-01,652.58270807,616.42548852,36.15721955,1744.64677664,1379.61723594,257.00038453,622.02992523,38.44780961,112.63596855,0.0,-8.16124158,28.63222872,0.0518527,224.42880131,188.56354747,151.46584901,37.09769846,0.0,6.38180352,0.0,,99.976672,685.75072,859.7000400000001,27.15475,7.165901,429.17162,8.05489,1142.5449010000002,4153.8362087900005,4591.062718790001
1998-02-01,689.22554977,654.03778432,35.18776545,1694.50478366,1240.7434427399999,98.17315175,551.9344926699999,34.30482616,127.3293639,0.0,4.04558591,17.508608345,0.04544348,183.1896026,289.91675139,229.85255635,60.06419504,0.0,71.63256291,0.0,,59.351143595,486.23728,624.46203,23.353839999999998,6.0330900000000005,332.12383,-18.09438,826.0567899999999,3928.5013594,4242.530809399999
1998-03-01,592.84865759,548.1986606,44.64999699,1826.86360677,1178.4726552099999,42.26612009,690.65707165,44.26762038,123.56503923,0.0,-5.027985559999999,18.10647907,1.24508421,247.57817505999998,284.58442123,189.70859133,94.8758299,0.0,8.28602237,0.0,,71.6909857,487.93628,577.53704,24.67099,7.08471,325.6668,9.01349,762.5487300000002,3888.0215952900003,4222.701885290001
1998-04-01,758.06625158,715.92716339,42.13908819,1600.90945508,1246.3767728100001,312.69104235,667.22372462,55.285279599999996,124.8218209,0.0,-4.75186933,14.527665665,3.90058554,236.61659622,282.17421748000004,172.16032956,110.01388792,0.0,86.46060802,0.0,,77.60093632499999,489.53969,582.79424,22.46153,7.834219999999999,322.44921,5.83228,774.34819,3899.3891778800003,4227.67066788
1998-05-01,1388.41465616,1346.35737866,42.0572775,1727.69037685,1182.48624013,79.4896527,624.69378942,45.161385259999996,120.90513519,0.0,-0.6072691,17.54843193,5.5439425,228.06811596,318.70650982,201.7913224,116.91518742,0.0,81.35216902,0.0,,67.58351774,482.09292,612.82126,14.90541,6.99727,317.06874,6.06847,793.6796500000002,4703.723850810001,5026.861060810001
1998-06-01,1012.28740838,965.32103994,46.96636844,1887.6347642,1234.91803956,34.37452756,687.0912522,44.21174138,121.70164115,0.0,-2.6172612699999998,14.107281705,7.49886172,241.85722504,311.47341346,191.93157051,119.54184295,0.0,148.68030446,0.0,,83.427026345,481.87105494,660.26494017,10.72274107,8.410120880000001,317.8866764,7.23598261,836.1461980500002,4617.98512186,4943.10778087
1998-07-01,705.49018654,656.21105174,49.2791348,1780.77935196,1286.256861,224.46903475,718.99152571,47.98058765,124.86168224,0.0,-1.35634713,14.863350239999999,2.63562529,261.11943464,332.75731894,188.40950092,144.34781802,0.0,16.17377603,0.0,,76.03754998,696.29061708,890.52656555,9.5400557,7.960778970000001,453.70853731,25.09104543,1125.5184345600003,4390.8997756399995,4869.6993583799995
1998-08-01,786.41651878,743.9935761300001,42.42294265,1750.37678812,1248.87566346,158.46536546,659.96649012,38.43695489,123.91196335,0.0,0.19760526,15.308323990000002,4.08216672,241.287816,319.77989025,187.48723568,132.29265457,0.0,97.42518942,0.0,,88.30541737,499.52154464,626.27833457,9.07026755,8.569714860000001,330.07720447,13.66277195,799.6998851999999,4188.35460957,4532.09458599
1998-09-01,577.44282475,534.9920383399999,42.45078641,1870.19631163,1258.8046084700002,51.38330502,662.77500818,44.21018368,123.09430152,0.0,0.14313366000000002,17.883544105,2.10489155,237.8333507,306.57346802,195.5668328,111.00663522,0.0,17.36093554,0.0,,71.492936075,490.85915986,608.0431128800001,9.31087272,8.29170555,322.54358643,-6.31793196,800.27919654,3980.1947104100004,4296.42036488
1998-10-01,675.35495658,634.51003166,40.84492492,1633.58350354,1202.03694289,213.30698682,644.85354747,42.74015927,125.43693179,0.0,0.28878018,20.072860395,0.19452356,231.25508957,312.50444352,192.38448212,120.1199614,0.0,96.37435917,0.0,,96.249049415,488.1767367,641.58673241,8.49116053,21.40655023,335.94859373,-1.22353003,824.9361161699998,3973.5104546199996,4308.23551832
1998-11-01,699.98143244,660.41049803,39.57093441,1762.87081747,1222.8871893,59.76821001,599.75183818,45.61359884,128.51035221,0.0,0.5630650300000001,15.934268900000001,0.3896457,222.18777781,331.20941747,198.53141367,132.6780038,0.0,18.62637707,0.0,,108.22783688,488.65816703,611.51977591,8.42074693,31.224176930000002,335.44958109,16.94804665,787.4252390600001,4030.3126312000004,4382.71025894
1998-12-01,950.44478561,912.1552929899999,38.28949262,1577.30136466,1212.83582739,201.20181137,565.66734864,39.6213975,125.14133451,0.0,1.57230577,14.778419265,0.17382765,220.50316238,414.21705529999997,226.09095169,188.12610361,0.0,123.4511151,0.0,,99.384427685,476.65444026,621.6093122999999,7.80002509,31.32469668,327.20369798,15.7176158,794.4671605499998,4281.813560979999,4624.734874759999
1999-01-01,721.09741006,688.87524489,32.22216517,1660.40595319,1388.96235802,203.7334743,475.17706947,30.77860802,149.40538841,0.0,0.0,16.898742795,0.06739468,189.69192533,216.84215557000002,153.54764764,63.29450793,0.0,8.37319509,0.0,,102.589945725,702.93974877,916.14038773,6.94047227,31.402650429999998,480.51916041,31.78099235,1145.1231064400004,4179.71660927,4692.01676203
1999-02-01,650.4493991,621.74176616,28.70763294,1496.30420731,1212.01555638,154.04021257,438.3288635,30.48298432,116.95517363,95.49016318,44.87767765,18.02043961,0.21361882,165.36909547000002,316.60985995,208.52423832,108.08562163,0.0,4.14291056,0.0,,95.335016,496.03093596,599.0896224200001,7.36439527,28.23770071,342.23095025,8.39712181,780.0945823,3753.3791592599996,4104.007231319999
1999-03-01,650.74920056,613.9110621699999,36.83813839,1676.2396244400002,1202.9316541,85.61510082,558.9230711600001,44.53195879,121.32238877,100.97462728,64.745905,14.653596615000001,2.63786004,203.19010611,257.05968932999997,178.2431516,78.81653773,0.0,5.44911226,0.0,,114.404142975,496.21269853,576.61496289,7.29939852,32.81354998,351.33282703,23.70598213,737.90180076,3904.7960953500005,4279.83490451
1999-04-01,681.88997438,650.90383091,30.98614347,1522.88331609,1251.9255636,257.90032798,528.85808047,53.90545004,112.98443211,104.75293496,69.19970636,8.78956252,2.97600815,177.57658282,295.63420347,170.98134275,124.65286072,0.0,57.37875461,0.0,,114.70506546,471.32184843,551.6416014,5.9948882800000005,29.30980926,344.38214539,1.12934379,712.7566581899999,3807.6217490800004,4153.133238260001
1999-05-01,1138.45068852,1106.93645343,31.51423509,1438.38371407,1198.13609797,199.64944237,439.89705847,49.109405620000004,116.22696786,82.26893694,60.97734579,21.328272095,5.49231513,166.49627452000001,327.280661,189.27952166,138.00113934,0.0,58.44068492,0.0,,109.479777825,476.92492523,523.64487922,5.4878852,28.9188118,336.4454532,7.73784674,690.7932015100001,4166.50943456,4510.6927345
1999-06-01,801.35496327,766.09240047,35.2625628,1600.89529807,1129.64211397,59.20311687,530.45630097,48.46978374,120.76387752,50.82437694,66.21652617,12.81440151999985,5.26150341,184.74588589,285.7925929,168.50662316,117.28596974,0.0,89.83598843,0.0,,343.68380089,471.05899232,523.28511277,3.61240975,27.13929254,325.54368168,34.16770298999996,665.3844227100001,4179.10385398,4538.8152386500005
1999-07-01,753.85612484,719.56331123,34.29281361,1450.50091479,1167.48219137,272.23248115,555.25120457,41.26522938,114.08699202,49.98548747,58.85052476,15.45066156,2.84363139,202.3386183,294.21422902,169.82151928,124.39270974,0.0,18.08702934,0.0,,137.10929434000002,671.50123342,775.7256364,2.88454359,28.66318968,478.13134377,-17.82625136,1018.46951068,4074.5277891299997,4534.832881539999
1999-08-01,795.20111195,760.69662083,34.50449112,1604.5988253,1160.61514473,111.33766643999999,555.3213470100001,50.95507426,124.20076936999999,52.55401003,69.29512154,13.731237079999874,2.71613498,194.11513201000002,293.10919363,178.93264692,114.17654671,0.0,88.53986975,0.0,,112.28093748,479.62557003999996,529.64469451,2.6153553699999996,30.24192215,338.59473581000003,12.814382029999983,690.71842423,3990.1056930899995,4341.51481093
1999-09-01,701.11780422,663.39016811,37.72763611,1651.5352085499999,1177.21838199,92.13516064,566.4519872000001,48.98525671,122.12022656,50.90550845,64.34524981,20.46996901,2.33781804,188.56118691999998,296.48390287,179.50032415,116.98357872,0.0,14.0448957,0.0,,102.08401107,473.30772537,523.4103656899999,2.51956069,26.7896804,352.15121537,-82.58675666,756.4628734400001,3921.4833979299997,4191.04785664
1999-10-01,764.7725407,728.8996441299998,35.87289657,1577.32375718,1179.22031049,162.2866078,560.39005449,69.15930225,116.74033988000001,52.0320509,60.84319056,12.452298300000013,0.25645896,189.61004926,291.26251736,175.73637422,115.52614314,0.0,96.80956393,0.0,,97.41385713,466.05512694000004,443.77686550999994,2.67087283,27.809271439999996,333.10977828999995,2.1403349299999848,605.0620235,3795.41934541,4130.66945863
1999-11-01,845.93648456,805.96272991,39.97375465,1611.57857617,1121.14963685,96.79655038,587.2254897,52.57253328,130.12595269,50.17070577,64.47875449,14.480407635000002,0.13662688,213.69217977,294.94868127999996,177.88181299,117.06686829,0.0,12.89182623,0.0,,112.124940495,482.63714317,525.1107090200001,2.2009967699999997,32.38020331,339.69092423,16.46012084,686.1780071999999,3984.1706098900004,4340.32165496
1999-12-01,735.09195791,696.91663577,38.17532214,1480.3867870200002,1184.47929469,272.916184,568.82367633,53.89247554,130.17136122,49.75889367999999,70.96160674000001,17.935834035000102,0.13959566,202.35758007,418.63712209,225.554836,193.08228609,0.0,91.53866445,0.0,,90.65788259499999,464.32899265,506.77891202,1.6860170300000004,27.740168610000005,329.63636638,18.41808606000005,652.4796378699998,3886.2244478000002,4234.27890024
2000-01-01,739.5832703,708.5509958,31.0322745,1650.62823989,1302.64713039,104.93442991,452.91553941,34.37548309,179.07205904,48.32866137,61.67070199,18.604910724999996,0.5841263,167.31589874000002,219.03018654,161.08620055,57.94398599,0.0,9.89370668,0.0,,111.919367015,682.5402764500001,719.66047518,0.0,27.79473161,477.46698837,14.203998859999995,938.3244960100001,4110.58014151,4602.25112874
2000-02-01,706.7494594,675.2957829100001,31.45367649,1378.9053745600002,1101.57739173,171.57478695000003,448.90276978,42.390375829999996,90.03412055999999,50.46043126,69.4876518,15.628064090000144,0.17551208,156.90563176,307.05716198,198.91721422999998,108.13994775,0.0,88.59160377,0.0,,150.44916537,498.5341628300001,528.03720135,0.0,24.62336072,366.11329479000005,-82.20390738999998,767.2853375000002,3739.3391383000007,4023.2485257000003
2000-03-01,695.56865978,659.29138225,36.27727753,1615.34146246,1201.85587791,98.37334754,511.85893209000005,65.26321216,119.19461061999999,46.92479368,90.25533228,24.807468129999627,1.31024894,177.19904866,259.69721831000004,181.19423008,78.50298823,0.0,10.61355041,0.0,,118.81462912,506.96449699000016,495.46339302,0.0,41.954859660000004,341.3142259900001,-15.364668450000021,718.4331921300001,3812.89700236,4138.8465599
2000-04-01,774.0092115799999,743.3623896,30.64682198,1559.6028523200002,1226.68047236,120.74500565,453.66738561,43.30249277,130.76697214,48.18719627,73.5658441,51.9527312,4.40421254,148.58152742,313.95323534,199.01151286,114.94172248000001,0.0,78.95861269,0.0,,118.82280023000001,488.30187100000006,466.05584917999994,0.0,31.406495579999998,333.20469012,19.49005139000004,633.0694742499999,3892.5721773099995,4245.26691882
2000-05-01,1189.20581367,1153.264485179999,35.941328490000004,1547.77,1148.0,117.72,517.49,52.37768654,111.36492575,55.27855581,74.61655111,40.804007780000006,11.96390373,170.58027534000001,265.86027303,162.26889067,103.59138236,0.0,89.63752594,0.0,,162.79406398999998,488.3850402299999,498.6212297,0.0,35.06766209,332.4491103000001,15.808676129999922,673.8161455899999,4341.3143552,4689.57214163
2000-06-01,1361.56222252,1326.61205704,34.950165479999995,1710.0,1257.2,61.2,514.0,50.36555166,115.04021943,48.41129977,73.77699495,38.20250527,5.56030763,167.2102594,298.5693308,178.05847805000002,120.51085275,0.0,181.43691499,0.0,,145.74392895000003,498.53823429999994,538.4375562499998,0.0,45.16859381,330.89071475000003,22.0738551,729.1798145099998,4824.328246559999,5177.292816409999
2000-07-01,802.2948004100001,768.1300345000001,34.16476591,1630.32382766,1223.21895393,121.81836306999999,528.9232368,45.44892454,125.51845983,44.94010653999999,66.13177481,35.15929758,4.32005364,164.45123399,288.85688074,171.1529386,117.70394214,0.0,42.79617706,0.0,,72.31819082999999,690.12477703,757.9303308299998,0.0,40.70109705,461.6088571499999,32.92544846000006,994.2218992999997,4225.883777850001,4720.41808346
2000-08-01,900.35667937,863.07728797,37.2793914,1640.0,1244.3,158.1,553.8,53.0,129.02651929,47.56057569,70.95032126,39.36557533,1.5947077,172.83240681,297.89644268999996,172.232994,125.66344869,0.0,168.92251247,0.0,,102.66563732999998,495.47432318999995,510.8958923800001,0.0,39.795273460000004,335.94667334999986,19.768976950000003,690.4498387300002,4208.62121667,4564.33686697
2000-09-01,732.0,697.63461118,34.33700745,1666.9,1229.9,60.2,497.2,54.0,124.5,45.7,72.34000159,32.693281575,0.39302444,166.02987276000002,322.99083091,198.70516500999997,124.28566590000001,0.0,36.6,0.0,,90.74352356499998,476.98377875999995,518.11854062,0.0,36.41685157,322.88358319999986,-126.39158567000003,835.0271734200002,4071.91770826,4268.40970579
2000-10-01,860.5,824.00981075,36.4950853,1508.4,1156.6,193.1,544.9,49.5,149.1,49.2,61.44733956,31.709714014999996,0.44535403,172.54591473,277.95973961,172.19112137999997,105.76861823,0.0,159.9,0.0,,113.90743373500001,482.39509704,518.36408522,0.0,35.63771439,327.6570532,21.499828449999992,687.2400149999999,4022.85551068,4372.01239233
2000-11-01,817.58624206,783.1582158,34.428026259999996,1557.9,1110.0,83.4,531.3,48.3,116.3855875,51.19583588,79.26481882,18.158309115,0.20640227,170.06499002,251.65383847999988,161.89207263,89.76176584999989,0.0,12.39481149,0.0,,219.48801099500002,464.83513483,472.73319951,0.0,31.630768570000004,364.48775852999995,-70.05310201000009,674.7644463900002,3920.76329302,4215.19794954
2000-12-01,875.8,845.79511398,29.95671728,1542.7,1221.3,175.6,497.0,44.42773093,138.36836916,63.96749178,61.60634718,16.503432710000002,1.11459004,142.53402065,374.6894062,196.91746465,177.77194154999998,0.0,144.56633935,0.0,,-42.75925766999998,487.21864365,502.5050852500001,0.0,33.76097533,314.1643043199999,52.6848356,656.6355643100001,3931.2985727799996,4298.1477127
2001-01-01,806.4479520299999,776.03111451,30.41683752,1630.62735194,1292.38940663,122.63880741,460.87675271999996,55.463454320000004,166.95462413,45.42303395,60.57409108,20.139885145,0.12675742,160.90546518000002,199.90612461999999,135.34876619,64.55735843,0.0,13.05238326,0.0,,214.268416995,677.6671887099999,708.4034489300001,0.0,32.66048332,497.2821425100001,-34.645606879999946,956.0945853299996,4219.057216759999,4681.69375239
2001-02-01,759.16639827,732.63758,26.52881827,1348.2560668,1094.54466361,143.74342883,397.45483202,49.57221208000001,181.54276306000003,55.019765529999994,53.14542535999999,12.11984751,0.01557786,134.86777211,285.93797035,179.89498317,106.04298718000001,0.0,134.65262088,0.0,,168.33696428000002,505.7501073,503.63031089000003,0.0,28.224347979999997,346.4041755400001,10.391814940000014,680.8087756899998,3764.2977356199995,4121.093726099999
2001-03-01,734.9906390200001,704.6130539200001,30.3775851,1423.56479704,1127.78277692,174.24027328,470.02229339999997,59.306060120000005,117.4873846,52.6774399,42.45679488,16.427496374999997,0.13580094,158.01955656,268.51505039000006,171.76895062000003,96.74609977,0.0,21.03689323,0.0,,-107.763795815,516.6599632900001,483.78827377999994,0.0,35.53791099,339.72167902,42.84020503999996,653.424264,3321.6662610000003,3704.2281450600003
2001-04-01,617.83077983,589.12484285,28.70593698,1413.48350442,1073.18671919,121.27259029000001,461.56937552,41.898592449999995,121.71741464,47.28025366000001,37.99615463,14.031041285,4.69380624,145.08116959,260.29564611,162.56913803,97.72650807999999,0.0,51.27159082,184.48426918,,73.536643165,477.54540615999997,456.1834027,0.0,28.46459535,335.68701100000004,18.00944422000001,608.49694899,3538.30063011,3891.99708533
2001-05-01,1548.84534385,1517.38391178,31.46143207,1382.85124556,1097.99365661,186.89816386,471.75575281,53.08510578,129.35840797,65.16724956,48.36599027,15.102291875,6.98889258,165.03722396999999,294.42563483000004,161.93124605000003,132.49438878,0.0,60.37928076,300.15927236,,75.96999266499999,484.70542643,477.54146216000004,0.0,34.339664309999996,342.44544336999996,3.1792151400000144,650.96189439,4690.52761486,5036.15227337
2001-06-01,1314.5148944199998,1285.58642165,28.92847277,1393.4907076900001,1086.3352241900002,112.24070103,419.39618453,46.409614160000004,268.479585,47.518167410000004,41.42957352,15.88123004,8.55002087,177.89320579999998,249.97044183000003,132.44736613,117.52307570000002,0.0,116.5,274.8,,57.3,461.63369624999996,443.16391237999994,0.0,31.933748950000002,325.6754797500001,-58.599747680000014,669.6556255099999,4589.573837930001,4856.6495700000005
2001-07-01,747.3523566399999,717.7605287199999,29.59182792,1264.7555852699998,1027.6304301399998,184.39629677,421.5214519,46.357150919999995,88.78685356,41.20318603,36.4783786,11.352164705,8.83469282,207.69021445,278.86462976999996,138.21842764,140.64620212999998,0.0,20.2,291.8,,75.3,657.09599538,635.4325218700002,0.0,31.253295389999995,460.6086786,31.23781447999992,831.9353195600003,3858.1962304849994,4350.042723564999
2001-08-01,784.99752394,755.82917093,29.16835301,1356.6386740799999,1037.848852,103.74086091,422.53068299000006,43.14619906,111.46188219999999,44.35554726,33.74635153,15.88912964,12.0059344,116.23487655000001,351.02394597,151.18720162,199.83674434999998,0.0,116.0,431.7,,63.3,451.4409965,514.9953257400001,0.0,29.223749679999997,318.45052805,7.766558190000071,669.44298568,4063.65065219,4389.86773843
2001-09-01,690.08225167,665.79364205,24.28860962,1142.9052569199998,961.7152551699999,148.72596743,329.91596918,33.30638108,115.25525728,33.3458704,32.76791171,11.01053625,2.53095958,57.30060464000001,352.03692940999997,155.07284972000002,196.96407968999998,0.0,11.0,377.1,,65.0,435.38021791999995,493.7073190200001,0.0,25.763374159999998,310.92295923,-1.6180259300000959,645.5459778000001,3502.57517458,3811.8801078799997
2001-10-01,727.61944081,703.03366082,24.585779990000002,1079.0261578700001,916.27723687,188.64321568000003,351.39213668,36.88884848,102.29105032000001,35.811227280000004,24.87779631,7.861744339999999,5.44911648,104.30254733999999,287.65481977,144.783011,142.87180877,0.0,118.0,406.5,,58.3,437.83600265,469.7938938600001,0.0,29.32979795,313.00519124,-24.481388560000006,648.4358917800001,3569.24094382,3857.7647465
2001-11-01,718.6,697.2,21.4,1090.2,912.2,139.9,317.9,41.2,116.1,47.8,17.05303839,13.725805499999996,1.00773977,103.57275360999998,329.03794369,153.52838918999998,175.50955450000004,0.0,14.34028277,368.63137317,,93.34195682000001,413.86824084,453.50433658,0.0,26.45614404,294.01229997,4.40397777,595.41244372,3467.62333744,3766.03961518